Powrót do katalogu

COSMOS 1017

AktywnyNawigacjaLEO
NORAD 10934·PAYLOAD·🇷🇺 Russia

Wystrzelony Jun 7, 1978 z Plesetsk Cosmodrome

Loading…

Następne Przeloty (najbliższe 24 godziny)

TLE

ŚwieżeSource: Space-Track

Epoka: Sep 14, 2026, 14:07 UTC

1 10934U 78056E   26257.58885184 -.00000001  00000-0  96688-4 0  9995
2 10934  74.0275 310.4500 0020924  63.5618 104.3939 12.47612961198425

Śledź COSMOS 1017 w czasie rzeczywistym z AllMySat

Download on the App Store